Chicago Executive, IL

2:27 AM CST on December 10, 2019 (GMT -0600)
Chicago Executive

Weather History for KPWK - October, 2019

Change the Weather History Date:

Thursday, October 10, 2019

  Actual Average Record
Temperature  
Mean Temperature 64 °F 54 °F  
Max Temperature 72 °F 64 °F 85 °F (2010)
Min Temperature 55 °F 44 °F 31 °F (2009)
Degree Days  
Heating Degree Days 2 11  
Month to date heating degree days 48 98  
Since 1 July heating degree days 55 210  
Cooling Degree Days 0 1  
Month to date cooling degree days 13 10  
Year to date cooling degree days 996 788  
Growing Degree Days 14 (Base 50)    
Moisture  
Dew Point 55 °F    
Average Humidity 74    
Maximum Humidity 87    
Minimum Humidity 61    
Precipitation  
Precipitation 0.29 in 0.10 in 0.76 in (2017)
Month to date precipitation 1.77 1.03  
Year to date precipitation 38.46 26.72  
Sea Level Pressure  
Sea Level Pressure 30.04 in    
Wind  
Wind Speed 5 mph ()    
Max Wind Speed 14 mph    
Max Gust Speed 18 mph    
Visibility 9.9 miles    
Events Rain    
T = Trace of Precipitation, MM = Missing Value Source: Averaged Metar Reports

Daily Weather History Graph

Daily Weather History Graph

Search for Another Location

Airport or City:

Astronomy

Oct. 10, 2019 Rise Set
Actual Time 6:58 AM CDT 6:18 PM CDT
Civil Twilight 6:30 AM CDT 6:46 PM CDT
Nautical Twilight 5:57 AM CDT 7:18 PM CDT
Astronomical Twilight 5:25 AM CDT 7:51 PM CDT
Moon 5:23 PM CDT 3:36 AM CDT
Length of Visible Light 12h 16m
Length of Day
11h 20m
Waxing Gibbous, 91% of the Moon is Illuminated
Oct 10
Waxing Gibbous
Oct 13
Full
Oct 21
Last Quarter
Oct 27
New
Nov 4
First Quarter

Hourly Weather History & Observations

Time (CDT) Temp. Dew Point Humidity Pressure Visibility Wind Dir Wind Speed Gust Speed Precip Events Conditions
12:52 AM 61.0 °F 48.9 °F 64% 30.09 in 10.0 mi SE 5.8 mph - N/A   Clear
1:52 AM 60.1 °F 48.9 °F 67% 30.11 in 10.0 mi ESE 4.6 mph - N/A   Clear
2:52 AM 57.9 °F 48.9 °F 72% 30.11 in 10.0 mi SSE 4.6 mph - N/A   Clear
3:52 AM 57.9 °F 48.0 °F 70% 30.10 in 10.0 mi ESE 3.5 mph - N/A   Clear
4:52 AM 55.0 °F 48.0 °F 77% 30.11 in 10.0 mi Calm Calm - N/A   Clear
5:52 AM 55.9 °F 48.9 °F 77% 30.11 in 10.0 mi Calm Calm - N/A   Clear
6:52 AM 57.0 °F 48.9 °F 74% 30.09 in 10.0 mi ESE 4.6 mph - N/A   Clear
7:52 AM 57.9 °F 51.1 °F 78% 30.07 in 10.0 mi ESE 3.5 mph - N/A   Clear
8:44 AM 60.1 °F 53.1 °F 78% 30.11 in 10.0 mi SSE 5.8 mph - N/A   Mostly Cloudy
8:52 AM 61.0 °F 53.1 °F 75% 30.11 in 10.0 mi SSE 8.1 mph - N/A   Mostly Cloudy
9:28 AM 62.1 °F 54.0 °F 75% 30.09 in 9.0 mi SSE 8.1 mph - N/A   Partly Cloudy
9:52 AM 63.0 °F 55.0 °F 75% 30.09 in 9.0 mi South 6.9 mph - N/A   Clear
10:52 AM 66.9 °F 55.0 °F 66% 30.09 in 10.0 mi South 8.1 mph - N/A   Clear
11:52 AM 70.0 °F 55.9 °F 61% 30.07 in 10.0 mi South 9.2 mph - N/A   Clear
12:52 PM 71.1 °F 57.0 °F 61% 30.04 in 10.0 mi South 6.9 mph - N/A   Partly Cloudy
1:52 PM 71.1 °F 57.9 °F 63% 30.02 in 10.0 mi ESE 8.1 mph - N/A   Partly Cloudy
2:52 PM 68.0 °F 57.0 °F 68% 29.99 in 10.0 mi East 8.1 mph - N/A   Clear
3:52 PM 68.0 °F 57.0 °F 68% 29.99 in 10.0 mi SE 5.8 mph - N/A   Mostly Cloudy
4:52 PM 66.0 °F 60.1 °F 81% 29.98 in 10.0 mi ENE 4.6 mph - 0.01 in Rain Light Rain
5:52 PM 66.0 °F 61.0 °F 84% 29.97 in 10.0 mi Calm Calm - 0.01 in   Overcast
6:52 PM 66.9 °F 60.1 °F 79% 29.95 in 10.0 mi ESE 4.6 mph - 0.00 in   Overcast
7:52 PM 66.9 °F 59.0 °F 76% 29.94 in 10.0 mi ESE 6.9 mph - 0.00 in   Overcast
8:52 PM 68.0 °F 59.0 °F 73% 29.94 in 10.0 mi SSE 8.1 mph - N/A   Overcast
9:52 PM 66.9 °F 61.0 °F 81% 29.94 in 10.0 mi SE 3.5 mph - 0.01 in   Overcast
10:52 PM 66.9 °F 61.0 °F 81% 29.92 in 10.0 mi SE 4.6 mph - N/A   Overcast
11:52 PM 66.0 °F 62.1 °F 87% 29.92 in 10.0 mi SSE 4.6 mph - 0.11 in   Overcast